EDT,Max TemperatureF,Mean TemperatureF,Min TemperatureF,Max Dew PointF,MeanDew PointF,Min DewpointF,Max Humidity, Mean Humidity, Min Humidity, Max Sea Level PressureIn, Mean Sea Level PressureIn, Min Sea Level PressureIn, Max VisibilityMiles, Mean VisibilityMiles, Min VisibilityMiles, Max Wind SpeedMPH, Mean Wind SpeedMPH, Max Gust SpeedMPH,PrecipitationIn, CloudCover, Events, WindDirDegrees
2007-8-1,86,75,64,66,63,60,93,69,44,30.11,30.03,29.95,10,5,0,12,3,15,0.00,3,Fog,293
2007-8-2,84,74,64,66,64,59,93,70,46,30.16,30.08,30.03,9,5,2,14,3,16,0.00,2,,333
2007-8-3,86,75,64,69,63,61,93,69,44,30.18,30.11,30.01,9,3,0,21,2,29,0.45,4,Fog-Rain,298
2007-8-4,89,76,63,67,63,61,93,67,40,30.14,30.07,30.01,9,6,1,13,4,16,0.00,1,,333
2007-8-5,86,75,64,70,66,61,93,71,48,30.14,30.04,29.99,6,4,2,17,3,20,T,1,,220
2007-8-6,89,78,66,69,66,64,93,70,46,30.10,30.02,29.94,7,4,0,14,4,17,0.00,0,Fog,332
2007-8-7,90,78,66,72,67,64,93,69,44,30.11,30.00,29.93,8,4,1,10,3,14,0.00,0,,323
2007-8-8,92,80,68,74,69,63,93,67,41,30.06,29.96,29.92,10,7,2,18,3,24,0.01,1,Rain,305
2007-8-9,94,81,67,73,68,64,93,69,44,30.08,29.96,29.89,10,7,2,13,3,17,0.00,0,,288
2007-8-10,92,79,66,69,66,63,93,69,44,29.93,29.88,29.83,10,9,3,15,4,18,0.00,1,,325
2007-8-11,90,79,67,66,64,62,93,67,41,30.04,29.95,29.88,10,9,5,16,6,18,0.00,1,,335
2007-8-12,85,78,70,70,68,63,97,76,55,30.20,30.09,30.00,10,7,2,10,4,16,0.12,5,Rain-Thunderstorm,163
2007-8-13,90,77,64,68,63,56,100,67,34,30.13,30.05,29.95,10,5,0,17,6,20,0.00,1,Fog,328
2007-8-14,89,76,62,62,58,51,93,61,29,30.09,29.99,29.94,10,8,2,14,4,17,0.00,0,,331
2007-8-15,93,76,58,66,58,51,87,57,27,30.04,30.00,29.96,10,10,9,13,4,16,0.00,0,,324
2007-8-16,94,79,64,68,64,61,93,66,38,30.09,30.03,30.00,10,8,6,18,2,22,0.01,1,Rain-Thunderstorm,140
2007-8-17,92,79,66,67,64,58,93,65,36,30.09,30.02,29.98,10,7,4,16,5,18,0.00,0,,332
2007-8-18,90,75,60,64,60,52,96,62,27,30.18,30.13,30.07,10,9,4,15,4,18,0.00,0,,180
2007-8-19,90,77,63,68,64,61,93,67,41,30.19,30.13,30.07,8,6,4,16,5,21,0.00,1,,176
2007-8-20,91,77,62,66,63,61,93,65,36,30.21,30.11,30.05,10,6,2,15,3,20,0.00,1,,219
2007-8-21,92,78,63,69,65,61,90,64,38,30.22,30.12,30.08,10,8,2,28,3,32,0.16,1,Rain,312
2007-8-22,92,79,66,69,66,62,93,67,41,30.21,30.12,30.06,10,8,1,15,4,21,0.00,1,,261
2007-8-23,88,78,67,70,67,63,93,73,53,30.21,30.11,30.05,10,9,5,16,3,22,T,1,Rain-Thunderstorm,144
2007-8-24,91,78,65,69,65,62,93,70,47,30.20,30.08,30.02,10,8,1,26,3,33,0.47,3,Rain-Thunderstorm,353
2007-8-25,90,78,65,68,65,61,93,68,42,30.12,30.05,29.92,10,4,0,10,4,14,T,3,Fog,333
2007-8-26,86,76,66,67,65,60,93,72,51,30.10,30.00,29.92,10,7,2,15,5,20,0.22,1,Rain-Thunderstorm,349
2007-8-27,82,74,65,68,65,64,100,79,58,30.22,30.13,30.04,9,3,0,12,2,16,0.00,6,Fog,146
2007-8-28,86,76,65,68,65,63,100,74,48,30.25,30.18,30.09,10,3,0,12,2,20,0.00,2,Fog,187
2007-8-29,87,76,64,67,64,62,93,72,51,30.23,30.13,30.05,10,6,2,14,4,18,T,2,,308
2007-8-30,82,75,67,70,66,64,93,76,58,30.06,30.01,29.91,10,6,1,26,7,29,1.40,3,Rain-Thunderstorm,333
2007-8-31,81,73,65,67,64,62,93,76,58,30.06,29.99,29.95,10,4,1,13,4,14,T,4,Rain,339